Location: Jetmore Motorplex
(37.9889°N, 99.8876°W)
Time: 09:42:57
(UTC+00:00)

Cosmos 1238 Rocket - Pass Details

Date: 17 February 2020
Orbit: 373 x 1032 km, 83.0° (Epoch: 03 April)

Event Time Altitude Azimuth Distance (km) Brightness Sun altitude
Rises 00:45:00 0° 166° (SSE) 3,310 6.8 -5.8°
Reaches altitude 10° 00:47:19 10° 160° (SSE) 2,472 6.0 -6.3°
Maximum altitude 00:52:45 46° 89° (E) 1,249 4.2 -7.3°
Drops below altitude 10° 00:58:53 10° 19° (NNE) 2,792 6.1 -8.5°
Sets 01:01:38 0° 14° (NNE) 3,780 6.9 -9.1°
